| time (UTC) | temp F | wind direction | speed MPH | gust MPH | rain 1hr in | rain 24hr in | rain mn in | humidity % | barometer mb |
| 20260508051820 | 53 | 0.0 | 0.0 | 0.00 | 0.04 | 0.00 | 88 | 1011.6 | |
| 20260508050818 | 53 | 0.0 | 0.0 | 0.00 | 0.04 | 0.00 | 88 | 1011.6 | |
| 20260508045818 | 53 | 0.0 | 0.0 | 0.00 | 0.04 | 0.00 | 89 | 1011.6 | |
| 20260508044838 | 52 | 0.0 | 0.0 | 0.00 | 0.04 | 0.00 | 89 | 1011.5 | |
| 20260508043820 | 52 | 0.0 | 0.0 | 0.00 | 0.04 | 0.00 | 90 | 1011.4 | |
| 20260508042820 | 52 | 0.0 | 0.0 | 0.00 | 0.04 | 0.00 | 90 | 1011.3 | |
| 20260508041818 | 52 | 0.0 | 0.0 | 0.00 | 0.04 | 0.00 | 89 | 1011.2 | |
| 20260508040820 | 51 | 0.0 | 0.0 | 0.00 | 0.04 | 0.00 | 89 | 1011.2 | |
| 20260508035839 | 51 | 0.0 | 0.0 | 0.00 | 0.04 | 0.04 | 88 | 1011.1 | |
| 20260508034819 | 51 | 0.0 | 1.0 | 0.00 | 0.04 | 0.04 | 86 | 1011.1 | |
| 20260508033819 | 51 | 0.0 | 0.0 | 0.00 | 0.04 | 0.04 | 85 | 1010.9 | |
| 20260508032819 | 51 | 0.0 | 0.0 | 0.00 | 0.04 | 0.04 | 83 | 1011.0 | |
| 20260508031819 | 51 | 0.0 | 0.0 | 0.00 | 0.04 | 0.04 | 83 | 1011.1 | |
| 20260508030819 | 52 | 0.0 | 0.0 | 0.00 | 0.04 | 0.04 | 82 | 1011.1 | |
| 20260508025819 | 52 | 0.0 | 0.0 | 0.00 | 0.04 | 0.04 | 82 | 1011.1 | |
| 20260508024859 | 51 | 0.0 | 1.0 | 0.00 | 0.04 | 0.04 | 83 | 1011.1 | |
| 20260508023839 | 51 | 0.0 | 1.0 | 0.00 | 0.04 | 0.04 | 82 | 1011.2 | |
| 20260508022819 | 51 | 0.0 | 0.0 | 0.00 | 0.04 | 0.04 | 82 | 1011.1 | |
| 20260508021818 | 50 | 0.0 | 0.0 | 0.00 | 0.04 | 0.04 | 83 | 1011.0 | |
| 20260508020819 | 50 | 0.0 | 1.0 | 0.00 | 0.04 | 0.04 | 83 | 1010.9 | |
| 20260508015839 | 50 | 0.0 | 1.0 | 0.00 | 0.04 | 0.04 | 83 | 1010.9 | |
| 20260508014839 | 50 | 0.0 | 0.0 | 0.00 | 0.04 | 0.04 | 83 | 1010.9 | |
| 20260508013819 | 50 | 0.0 | 0.0 | 0.00 | 0.04 | 0.04 | 83 | 1010.8 | |
| 20260508012838 | 51 | 0.0 | 0.0 | 0.00 | 0.04 | 0.04 | 83 | 1010.6 | |
| 20260508011819 | 51 | 0.0 | 0.0 | 0.00 | 0.04 | 0.04 | 83 | 1010.6 | |
| 20260508010819 | 51 | 0.0 | 0.0 | 0.00 | 0.04 | 0.04 | 83 | 1010.4 | |
| 20260508005819 | 51 | 0.0 | 0.0 | 0.00 | 0.04 | 0.04 | 82 | 1010.3 | |
| 20260508004819 | 52 | 0.0 | 0.0 | 0.00 | 0.04 | 0.04 | 81 | 1010.2 | |
| 20260508003819 | 52 | 0.0 | 1.0 | 0.00 | 0.04 | 0.04 | 81 | 1010.1 | |
| 20260508002819 | 52 | 0.0 | 0.0 | 0.00 | 0.04 | 0.04 | 81 | 1010.1 | |
| 20260508001839 | 53 | 0.0 | 0.0 | 0.00 | 0.04 | 0.04 | 79 | 1009.9 | |
| 20260508000819 | 53 | 0.0 | 0.0 | 0.00 | 0.04 | 0.04 | 78 | 1009.9 | |
| 20260507235818 | 54 | 180 | 1.0 | 2.0 | 0.00 | 0.04 | 0.04 | 77 | 1009.8 |
| 20260507234819 | 54 | 180 | 1.0 | 1.0 | 0.00 | 0.04 | 0.04 | 75 | 1009.7 |
| 20260507233819 | 55 | 180 | 1.0 | 1.0 | 0.00 | 0.04 | 0.04 | 74 | 1009.4 |
| 20260507232819 | 55 | 180 | 1.0 | 2.0 | 0.00 | 0.04 | 0.04 | 74 | 1009.4 |
| 20260507231859 | 55 | 158 | 2.0 | 4.0 | 0.00 | 0.04 | 0.04 | 73 | 1009.3 |
| 20260507230819 | 55 | 180 | 2.0 | 3.0 | 0.00 | 0.04 | 0.04 | 73 | 1009.2 |
| 20260507225819 | 55 | 180 | 1.0 | 4.0 | 0.00 | 0.04 | 0.04 | 73 | 1009.2 |
| 20260507224819 | 56 | 203 | 2.0 | 3.0 | 0.00 | 0.04 | 0.04 | 73 | 1009.1 |
| 20260507223838 | 56 | 180 | 3.0 | 4.0 | 0.00 | 0.04 | 0.04 | 72 | 1009.1 |
| 20260507222818 | 56 | 180 | 4.0 | 8.0 | 0.00 | 0.04 | 0.04 | 74 | 1009.2 |
| 20260507221818 | 56 | 135 | 3.0 | 8.0 | 0.00 | 0.04 | 0.04 | 73 | 1009.2 |
| 20260507220818 | 56 | 180 | 3.0 | 5.0 | 0.00 | 0.04 | 0.04 | 73 | 1009.2 |
| 20260507215818 | 57 | 180 | 3.0 | 6.0 | 0.00 | 0.04 | 0.04 | 72 | 1009.3 |
| 20260507214819 | 57 | 180 | 4.0 | 6.0 | 0.00 | 0.04 | 0.04 | 72 | 1009.3 |
| 20260507213818 | 58 | 158 | 3.0 | 5.0 | 0.00 | 0.04 | 0.04 | 74 | 1009.3 |
| 20260507212818 | 58 | 180 | 2.0 | 8.0 | 0.00 | 0.04 | 0.04 | 74 | 1009.3 |
| 20260507211818 | 58 | 158 | 3.0 | 4.0 | 0.00 | 0.04 | 0.04 | 71 | 1008.9 |
| 20260507210820 | 58 | 180 | 4.0 | 8.0 | 0.00 | 0.04 | 0.04 | 69 | 1009.2 |
| 20260507205818 | 58 | 180 | 2.0 | 4.0 | 0.00 | 0.04 | 0.04 | 70 | 1009.6 |
| 20260507204818 | 59 | 180 | 3.0 | 4.0 | 0.00 | 0.04 | 0.04 | 70 | 1009.4 |
| 20260507203818 | 59 | 203 | 1.0 | 2.0 | 0.00 | 0.04 | 0.04 | 69 | 1009.1 |
| 20260507202818 | 59 | 180 | 2.0 | 4.0 | 0.00 | 0.04 | 0.04 | 66 | 1009.3 |
| 20260507201818 | 59 | 0.0 | 1.0 | 0.00 | 0.04 | 0.04 | 67 | 1009.0 | |
| 20260507200818 | 59 | 203 | 2.0 | 2.0 | 0.00 | 0.04 | 0.04 | 70 | 1009.5 |
| 20260507195838 | 60 | 0.0 | 0.0 | 0.00 | 0.04 | 0.04 | 69 | 1009.0 | |
| 20260507194838 | 60 | 0.0 | 0.0 | 0.00 | 0.04 | 0.04 | 66 | 1009.4 | |
| 20260507193818 | 60 | 0.0 | 0.0 | 0.00 | 0.04 | 0.04 | 64 | 1009.3 | |
| 20260507192820 | 60 | 0.0 | 0.0 | 0.00 | 0.04 | 0.04 | 65 | 1009.7 | |
| 20260507191818 | 61 | 0.0 | 0.0 | 0.00 | 0.04 | 0.04 | 66 | 1009.2 | |
| 20260507190820 | 61 | 338 | 2.0 | 2.0 | 0.00 | 0.04 | 0.04 | 66 | 1009.7 |
| 20260507185820 | 61 | 315 | 1.0 | 2.0 | 0.00 | 0.04 | 0.04 | 71 | 1009.9 |
| 20260507184818 | 60 | 0.0 | 2.0 | 0.00 | 0.04 | 0.04 | 67 | 1009.8 | |
| 20260507183818 | 60 | 315 | 3.0 | 4.0 | 0.00 | 0.04 | 0.04 | 64 | 1010.1 |
| 20260507182820 | 60 | 315 | 3.0 | 5.0 | 0.00 | 0.04 | 0.04 | 63 | 1010.3 |
| 20260507181820 | 60 | 338 | 2.0 | 4.0 | 0.00 | 0.04 | 0.04 | 66 | 1010.2 |
| 20260507180820 | 59 | 338 | 4.0 | 8.0 | 0.00 | 0.04 | 0.04 | 66 | 1010.4 |
| 20260507175818 | 59 | 338 | 4.0 | 6.0 | 0.00 | 0.04 | 0.04 | 67 | 1010.5 |
| 20260507174840 | 58 | 315 | 4.0 | 6.0 | 0.00 | 0.04 | 0.04 | 71 | 1010.8 |
| 20260507173820 | 58 | 315 | 2.0 | 3.0 | 0.00 | 0.04 | 0.04 | 70 | 1011.0 |
| 20260507172820 | 59 | 315 | 2.0 | 3.0 | 0.00 | 0.04 | 0.04 | 71 | 1010.7 |
| 20260507171820 | 59 | 315 | 2.0 | 4.0 | 0.00 | 0.04 | 0.04 | 74 | 1010.7 |
| 20260507170818 | 58 | 315 | 4.0 | 5.0 | 0.00 | 0.04 | 0.04 | 69 | 1010.8 |
| 20260507165820 | 58 | 338 | 3.0 | 5.0 | 0.00 | 0.08 | 0.04 | 69 | 1011.1 |
| 20260507164820 | 58 | 338 | 3.0 | 5.0 | 0.00 | 0.08 | 0.04 | 70 | 1011.0 |
| 20260507163818 | 58 | 315 | 3.0 | 3.0 | 0.00 | 0.08 | 0.04 | 71 | 1011.4 |
| 20260507162820 | 58 | 338 | 3.0 | 4.0 | 0.00 | 0.08 | 0.04 | 72 | 1011.3 |
| 20260507161820 | 58 | 338 | 2.0 | 3.0 | 0.00 | 0.08 | 0.04 | 75 | 1011.5 |
| 20260507160820 | 58 | 315 | 4.0 | 5.0 | 0.00 | 0.08 | 0.04 | 68 | 1011.8 |
| 20260507155820 | 58 | 315 | 3.0 | 4.0 | 0.00 | 0.08 | 0.04 | 67 | 1011.9 |
| 20260507154819 | 59 | 338 | 5.0 | 9.0 | 0.00 | 0.08 | 0.04 | 65 | 1011.7 |
| 20260507153820 | 59 | 338 | 5.0 | 8.0 | 0.00 | 0.08 | 0.04 | 66 | 1011.6 |
| 20260507152818 | 59 | 338 | 3.0 | 5.0 | 0.00 | 0.08 | 0.04 | 69 | 1011.8 |
| 20260507150820 | 59 | 338 | 5.0 | 9.0 | 0.00 | 0.08 | 0.04 | 67 | 1012.2 |
| 20260507145819 | 58 | 338 | 6.0 | 9.0 | 0.00 | 0.08 | 0.04 | 69 | 1012.0 |
| 20260507144820 | 58 | 338 | 5.0 | 9.0 | 0.00 | 0.08 | 0.04 | 66 | 1012.1 |
| 20260507143820 | 58 | 338 | 6.0 | 9.0 | 0.00 | 0.08 | 0.04 | 67 | 1012.1 |
| 20260507142819 | 58 | 338 | 9.0 | 14.0 | 0.00 | 0.08 | 0.04 | 69 | 1012.2 |
| 20260507141820 | 58 | 338 | 9.0 | 12.0 | 0.00 | 0.08 | 0.04 | 69 | 1011.9 |
| 20260507140820 | 58 | 338 | 9.0 | 12.0 | 0.00 | 0.08 | 0.04 | 69 | 1012.2 |
| 20260507135819 | 59 | 338 | 5.0 | 8.0 | 0.00 | 0.08 | 0.04 | 72 | 1012.3 |
| 20260507134819 | 59 | 338 | 5.0 | 9.0 | 0.00 | 0.08 | 0.04 | 75 | 1012.0 |
| 20260507133839 | 59 | 338 | 8.0 | 11.0 | 0.00 | 0.08 | 0.04 | 77 | 1011.9 |
| 20260507132840 | 58 | 338 | 6.0 | 11.0 | 0.00 | 0.08 | 0.04 | 81 | 1012.1 |
| 20260507131819 | 58 | 338 | 2.0 | 3.0 | 0.00 | 0.08 | 0.04 | 82 | 1012.4 |
| 20260507130819 | 58 | 315 | 3.0 | 5.0 | 0.00 | 0.08 | 0.04 | 83 | 1012.1 |
| 20260507125839 | 57 | 338 | 2.0 | 3.0 | 0.00 | 0.08 | 0.04 | 84 | 1012.2 |
| 20260507124819 | 56 | 338 | 4.0 | 8.0 | 0.00 | 0.08 | 0.04 | 85 | 1011.9 |
| 20260507123819 | 56 | 338 | 2.0 | 3.0 | 0.00 | 0.08 | 0.04 | 85 | 1012.1 |
| 20260507122819 | 55 | 338 | 3.0 | 4.0 | 0.00 | 0.08 | 0.04 | 86 | 1012.1 |
| 20260507121819 | 55 | 338 | 2.0 | 3.0 | 0.00 | 0.08 | 0.04 | 85 | 1012.4 |
| 20260507120819 | 55 | 338 | 3.0 | 4.0 | 0.00 | 0.08 | 0.04 | 85 | 1012.4 |
| 20260507115819 | 55 | 338 | 1.0 | 3.0 | 0.00 | 0.08 | 0.04 | 87 | 1012.0 |
| 20260507114819 | 55 | 0.0 | 1.0 | 0.00 | 0.08 | 0.04 | 87 | 1012.0 | |
| 20260507113819 | 54 | 338 | 1.0 | 2.0 | 0.00 | 0.08 | 0.04 | 86 | 1012.2 |
| 20260507112819 | 54 | 338 | 4.0 | 6.0 | 0.00 | 0.08 | 0.04 | 87 | 1012.0 |
| 20260507111839 | 54 | 338 | 2.0 | 3.0 | 0.00 | 0.08 | 0.04 | 86 | 1012.0 |
| 20260507110820 | 54 | 338 | 4.0 | 6.0 | 0.00 | 0.08 | 0.04 | 88 | 1011.8 |
| 20260507105819 | 54 | 338 | 3.0 | 5.0 | 0.00 | 0.08 | 0.04 | 87 | 1011.9 |
| 20260507104819 | 54 | 0 | 2.0 | 4.0 | 0.00 | 0.08 | 0.04 | 87 | 1011.3 |
| 20260507103819 | 54 | 315 | 2.0 | 5.0 | 0.00 | 0.08 | 0.04 | 87 | 1011.3 |
| 20260507102819 | 54 | 338 | 3.0 | 4.0 | 0.00 | 0.08 | 0.04 | 87 | 1011.4 |
| 20260507101819 | 54 | 315 | 3.0 | 6.0 | 0.00 | 0.08 | 0.04 | 87 | 1011.2 |
| 20260507100819 | 55 | 338 | 3.0 | 3.0 | 0.00 | 0.08 | 0.04 | 88 | 1011.2 |
| 20260507095818 | 55 | 338 | 6.0 | 8.0 | 0.00 | 0.08 | 0.04 | 87 | 1011.3 |
| 20260507094959 | 55 | 338 | 9.0 | 14.0 | 0.00 | 0.08 | 0.04 | 88 | 1011.1 |
| 20260507093819 | 55 | 338 | 9.0 | 11.0 | 0.00 | 0.08 | 0.04 | 90 | 1011.2 |
| 20260507092859 | 56 | 338 | 3.0 | 4.0 | 0.00 | 0.08 | 0.04 | 91 | 1011.3 |
| 20260507091819 | 56 | 338 | 4.0 | 5.0 | 0.00 | 0.08 | 0.04 | 91 | 1011.0 |
| 20260507090819 | 56 | 338 | 7.0 | 9.0 | 0.00 | 0.08 | 0.04 | 92 | 1010.8 |
| 20260507085839 | 56 | 338 | 5.0 | 8.0 | 0.00 | 0.08 | 0.04 | 91 | 1010.8 |
| 20260507084819 | 56 | 338 | 7.0 | 11.0 | 0.00 | 0.08 | 0.04 | 91 | 1010.8 |
| 20260507083819 | 57 | 338 | 10.0 | 12.0 | 0.00 | 0.08 | 0.04 | 92 | 1010.9 |
| 20260507082819 | 57 | 338 | 10.0 | 14.0 | 0.00 | 0.08 | 0.04 | 92 | 1010.7 |
| 20260507081819 | 57 | 338 | 6.0 | 12.0 | 0.00 | 0.08 | 0.04 | 93 | 1010.2 |
| 20260507080819 | 57 | 315 | 2.0 | 4.0 | 0.00 | 0.08 | 0.04 | 93 | 1010.1 |
| 20260507075819 | 57 | 338 | 3.0 | 5.0 | 0.00 | 0.08 | 0.04 | 93 | 1010.1 |
| 20260507074818 | 57 | 338 | 9.0 | 11.0 | 0.00 | 0.08 | 0.04 | 93 | 1010.5 |
| 20260507073859 | 58 | 338 | 7.0 | 9.0 | 0.00 | 0.08 | 0.04 | 93 | 1010.0 |
| 20260507072818 | 58 | 338 | 4.0 | 6.0 | 0.00 | 0.08 | 0.04 | 93 | 1009.5 |
| 20260507071819 | 58 | 338 | 10.0 | 14.0 | 0.00 | 0.08 | 0.04 | 93 | 1009.6 |
| 20260507070819 | 59 | 338 | 9.0 | 14.0 | 0.00 | 0.08 | 0.04 | 94 | 1009.6 |
| 20260507065818 | 59 | 315 | 7.0 | 9.0 | 0.02 | 0.08 | 0.04 | 94 | 1009.0 |
| 20260507064819 | 60 | 338 | 7.0 | 11.0 | 0.02 | 0.08 | 0.04 | 94 | 1008.7 |
| 20260507063819 | 60 | 338 | 8.0 | 11.0 | 0.04 | 0.08 | 0.04 | 94 | 1008.8 |
| 20260507062839 | 60 | 338 | 6.0 | 9.0 | 0.04 | 0.08 | 0.04 | 93 | 1008.9 |
| 20260507061819 | 60 | 338 | 8.0 | 11.0 | 0.04 | 0.08 | 0.04 | 93 | 1009.0 |
| 20260507060818 | 61 | 338 | 5.0 | 9.0 | 0.04 | 0.08 | 0.04 | 93 | 1008.8 |
| 20260507055818 | 62 | 338 | 7.0 | 10.0 | 0.02 | 0.06 | 0.02 | 92 | 1009.4 |
| 20260507054819 | 62 | 338 | 7.0 | 9.0 | 0.02 | 0.06 | 0.02 | 91 | 1009.1 |
| 20260507053839 | 63 | 338 | 8.0 | 11.0 | 0.00 | 0.04 | 0.00 | 90 | 1009.6 |
| 20260507052819 | 64 | 338 | 6.0 | 11.0 | 0.00 | 0.04 | 0.00 | 89 | 1009.3 |